Weather History for KWVI - February, 2013

Change the Weather History Date:

Friday, February 1, 2013

  Actual Average Record
Temperature  
Mean Temperature 56 °F 51 °F  
Max Temperature 72 °F 62 °F 72 °F (2013)
Min Temperature 40 °F 41 °F 31 °F (2002)
Degree Days  
Heating Degree Days 9    
Month to date heating degree days 9  
Since 1 July heating degree days 1739  
Cooling Degree Days 0    
Month to date cooling degree days 0  
Year to date cooling degree days 0  
Growing Degree Days 6 (Base 50)    
Moisture  
Dew Point 45 °F    
Average Humidity 70    
Maximum Humidity 100    
Minimum Humidity 40    
Precipitation  
Precipitation 0.00 in - 1.68 in (1963)
Month to date precipitation 0.00  
Year to date precipitation 0.68  
Since 1 July precipitation 11.62  
Sea Level Pressure  
Sea Level Pressure 30.20 in    
Wind  
Wind Speed 4 mph (WSW)    
Max Wind Speed 14 mph    
Max Gust Speed 16 mph    
Visibility 6 miles    
Events Fog    
T = Trace of Precipitation, MM = Missing Value Source: NWS Daily Summary

Daily Weather History Graph

Daily Weather History Graph

Search for Another Location

Airport or City:

Trip Planner

Search our weather history database for the weather conditions in past years. The results will help you decide how hot, cold, wet, or windy it might be!

Date:

Astronomy

Feb. 01, 2013 Rise Set
Actual Time 7:09 AM PST 5:32 PM PST
Civil Twilight 6:41 AM PST 6:00 PM PST
Nautical Twilight 6:10 AM PST 6:31 PM PST
Astronomical Twilight 5:40 AM PST 7:01 PM PST
Moon 11:35 PM PST (2/1) 9:55 AM PST (2/1)
Length of Visible Light 11h 18m
Length of Day
10h 23m
Waning Gibbous, 69% of the Moon is Illuminated
Feb 1
Waning Gibbous
Feb 3
Last Quarter
Feb 9
New
Feb 17
First Quarter
Feb 25
Full

Hourly Weather History & Observations

Time (PST) Temp. Windchill Dew Point Humidity Pressure Visibility Wind Dir Wind Speed Gust Speed Precip Events Conditions
2:53 AM 43.0 °F 41.3 °F 39.0 °F 86% 30.18 in 10.0 mi West 3.5 mph - N/A   Clear
3:53 AM 43.0 °F - 39.0 °F 86% 30.17 in 10.0 mi Calm Calm - N/A   Clear
4:53 AM 42.1 °F - 37.9 °F 85% 30.17 in 10.0 mi Calm Calm - N/A   Clear
5:53 AM 42.1 °F 38.4 °F 37.9 °F 85% 30.17 in 10.0 mi WNW 5.8 mph - N/A   Clear
6:53 AM 43.0 °F 41.3 °F 39.0 °F 86% 30.18 in 10.0 mi NNE 3.5 mph - N/A   Clear
7:53 AM 43.0 °F - 39.9 °F 89% 30.19 in 7.0 mi Calm Calm - N/A   Clear
8:53 AM 50.0 °F - 42.1 °F 74% 30.19 in 10.0 mi ENE 4.6 mph - N/A   Clear
9:53 AM 57.0 °F - 44.1 °F 62% 30.19 in 10.0 mi East 9.2 mph - N/A   Clear
10:53 AM 62.1 °F - 44.1 °F 52% 30.18 in 10.0 mi East 3.5 mph - N/A   Clear
11:53 AM 66.9 °F - 46.0 °F 47% 30.16 in 10.0 mi East 4.6 mph - N/A   Clear
12:53 PM 70.0 °F - 44.1 °F 39% 30.13 in 10.0 mi Variable 3.5 mph - N/A   Clear
1:53 PM 64.0 °F - 48.0 °F 56% 30.12 in 10.0 mi SSW 11.5 mph - N/A   Clear
2:53 PM 55.9 °F - 48.0 °F 75% 30.15 in 10.0 mi SW 11.5 mph - N/A   Clear
3:53 PM 55.0 °F - 46.9 °F 74% 30.16 in 10.0 mi SSW 8.1 mph - N/A   Clear
4:20 PM 50.0 °F - 48.2 °F 94% 30.19 in 3.0 mi SW 9.2 mph - N/A   Scattered Clouds
4:23 PM 50.0 °F - 48.2 °F 94% 30.19 in 2.0 mi SSW 8.1 mph - N/A   Mostly Cloudy
4:30 PM 48.2 °F - 48.2 °F 100% 30.19 in 1.8 mi West 8.1 mph - N/A   Mostly Cloudy
4:39 PM 48.2 °F - 46.4 °F 93% 30.19 in 2.5 mi WSW 5.8 mph - N/A   Overcast
4:53 PM 48.9 °F - 46.9 °F 93% 30.19 in 6.0 mi West 6.9 mph - N/A   Overcast
5:53 PM 48.9 °F - 46.0 °F 90% 30.19 in 9.0 mi Calm Calm - N/A   Overcast
6:53 PM 48.9 °F - 46.9 °F 93% 30.20 in 7.0 mi Calm Calm - N/A   Overcast
7:19 PM 48.2 °F - 46.4 °F 93% 30.20 in 6.0 mi Calm Calm - N/A   Overcast
7:53 PM 48.9 °F - 46.9 °F 93% 30.22 in 5.0 mi Calm Calm - N/A   Overcast
8:09 PM 48.2 °F - 46.4 °F 93% 30.21 in 6.0 mi Calm Calm - N/A   Overcast
8:53 PM 48.0 °F - 46.0 °F 93% 30.22 in 4.0 mi Calm Calm - N/A   Overcast
9:04 PM 48.2 °F - 46.4 °F 93% 30.21 in 1.8 mi NNW 3.5 mph - N/A   Overcast
9:28 PM 48.2 °F - 46.4 °F 93% 30.21 in 1.0 mi North 3.5 mph - N/A   Mist
9:35 PM 48.2 °F - 46.4 °F 93% 30.21 in 0.8 mi Calm Calm - N/A   Mist
9:53 PM 46.9 °F - 46.0 °F 97% 30.22 in 0.2 mi Calm Calm - N/A Fog Fog
10:00 PM 46.4 °F - 46.4 °F 100% 30.22 in 0.2 mi Calm Calm - N/A Fog Fog
10:29 PM 46.4 °F - 44.6 °F 93% 30.22 in 0.5 mi Calm Calm - N/A Fog Fog
10:43 PM 44.6 °F 43.1 °F 44.6 °F 100% 30.23 in 0.2 mi SW 3.5 mph - N/A Fog Fog
10:53 PM 45.0 °F - 45.0 °F 100% 30.23 in 0.2 mi Calm Calm - N/A Fog Fog
11:30 PM 46.4 °F - 44.6 °F 93% 30.25 in 0.5 mi Calm Calm - N/A Fog Fog
11:50 PM 46.4 °F - 46.4 °F 100% 30.25 in 1.0 mi Calm Calm - N/A   Mist
11:53 PM 46.0 °F - 45.0 °F 96% 30.25 in 1.0 mi Calm Calm - N/A   Mist